Flag for U.S.A. Weather past 2 weeks in Fort Myers, Florida, U.S.A.

Now
50 °F

Clear.


Feels Like: 47 °F
Forecast: 51 / 73 °F
Wind: 8 mph from Northeast

Location: Page Field

Current Time: Jan 31, 2015 at 7:15:27 AM

Latest Report: Jan 31, 2015 at 5:53 AM


Visibility: 10 mi

Pressure: 30.21 "Hg

Humidity: 83%

Dew point: 45 °F

Location of Fort MyersLocation

Historic Weather in Fort Myers — Graph

°F

Fort Myers temperature yesterday

Maximum temperature yesterday: 72 °F (at 12:53 PM)
Minimum temperature yesterday: 49 °F (at 5:53 AM)
Average temperature yesterday: 62 °F

Past Weeks' High & Low Weather Summary

 TemperatureHumidityPressure
High82 °F (Jan 21, 4:53 PM)97% (Jan 18, 2:53 AM)30.30 "Hg (Jan 18, 2:53 AM)
Low46 °F (Jan 29, 6:53 AM)27% (Jan 28, 4:53 PM)29.82 "Hg (Jan 24, 3:53 AM)
Average63 °F72%30.09 "Hg
* Reported Jan 16 5:03 AM — Jan 31 5:53 AM, Fort Myers, Weather by CustomWeather, © 2014

Note: Actual official high and low records may vary slightly from our data, if they occured in-between our weather recording intervals... More about our weather records

Advertising

Fort Myers weather history for previous 24 hours

 ConditionsComfort  
Time TempWeatherWind HumidityBarometerVisibility
5:53 AM
Jan 31
50 °FClear.8 mph83%30.21 "Hg10 mi
4:53 AM52 °FClear.9 mph80%30.19 "Hg10 mi
3:53 AM54 °FClear.8 mph80%30.19 "Hg10 mi
2:53 AM54 °FClear.9 mph90%30.19 "Hg10 mi
1:53 AM56 °FClear.7 mph87%30.20 "Hg10 mi
12:53 AM57 °FClear.8 mph90%30.19 "Hg10 mi
11:53 PM
Jan 30
60 °FPassing clouds.8 mph83%30.20 "Hg10 mi
10:53 PM61 °FClear.6 mph90%30.19 "Hg10 mi
9:53 PM60 °FClear.5 mph90%30.18 "Hg10 mi
8:53 PM63 °FClear.6 mph81%30.17 "Hg10 mi
7:53 PM63 °FClear.6 mph84%30.16 "Hg10 mi
6:53 PM65 °FClear.7 mph76%30.16 "Hg10 mi
5:53 PM67 °FSunny.8 mph68%30.15 "Hg10 mi
4:53 PM70 °FSunny.13 mph61%30.15 "Hg10 mi
3:53 PM72 °FSunny.9 mph55%30.14 "Hg10 mi
2:53 PM72 °FSunny.9 mph55%30.14 "Hg10 mi
1:53 PM72 °FPassing clouds.12 mph53%30.16 "Hg10 mi
12:53 PM72 °FSunny.15 mph52%30.18 "Hg10 mi
11:53 AM70 °FSunny.6 mph47%30.22 "Hg10 mi
10:53 AM69 °FSunny.5 mph49%30.25 "Hg10 mi
9:53 AM67 °FSunny.5 mph55%30.24 "Hg10 mi
8:53 AM62 °FSunny.7 mph62%30.24 "Hg10 mi
7:53 AM51 °FSunny.No wind92%30.23 "Hg10 mi
Weather by CustomWeather, © 2014

See weather overviewHow to use our weather pages